Location: Newark
(44.1906°N, 75.9681°W)
Time: 19:18:36
(UTC+00:00)

X-37B - Visible Passes

Search period start: 05 March 2021 00:00
Search period end: 15 March 2021 00:00
Orbit: 383 x 391 km, 45.0° (Epoch: 27 February)

Date Brightness Start Highest point End Pass type
(mag) Time Alt. Az. Time Alt. Az. Time Alt. Az.
11 Mar 2.8 00:49:28 10° SSW 00:50:31 17° SSW 00:50:31 17° SSW visible
11 Mar 2.6 23:52:00 10° S 23:54:01 16° SE 23:55:19 13° ESE visible
12 Mar 3.5 01:27:04 10° WSW 01:27:39 14° WSW 01:27:39 14° WSW visible
13 Mar 1.1 00:28:54 10° SW 00:31:56 41° SSE 00:32:19 39° SE visible
14 Mar 1.7 01:06:53 10° WSW 01:09:11 43° WSW 01:09:11 43° WSW visible
